Location: Jenkins
(46.6460°N, 94.3340°W)
Time: 21:21:44
(UTC-05:00)

Tiangong - Visible Passes

Search period start: 12 March 2026 00:00
Search period end: 22 March 2026 00:00
Orbit: 381 x 390 km, 41.5° (Epoch: 12 March)

Date Brightness Start Highest point End Pass type
(mag) Time Alt. Az. Time Alt. Az. Time Alt. Az.
12 Mar 0.4 06:27:58 10° SSW 06:29:58 16° SSE 06:31:59 10° ESE visible
13 Mar 0.7 05:30:50 11° SSE 05:30:50 11° SSE 05:31:33 10° SE visible
14 Mar -0.2 06:06:22 17° SSW 06:07:36 21° SSE 06:10:05 10° ESE visible
15 Mar 0.7 05:09:35 13° SE 05:09:35 13° SE 05:10:14 10° ESE visible
15 Mar -0.8 06:41:48 11° WSW 06:44:32 30° S 06:47:23 10° ESE visible
16 Mar -0.7 05:44:56 26° S 05:45:02 26° SSE 05:47:47 10° ESE visible
17 Mar 1.1 04:48:00 10° ESE 04:48:00 10° ESE 04:48:01 10° ESE visible
17 Mar -1.0 06:20:13 19° SW 06:21:55 32° S 06:24:48 10° ESE visible
18 Mar -0.4 05:23:14 25° SE 05:23:14 25° SE 05:25:10 10° ESE visible
19 Mar -1.0 05:58:27 27° SSW 05:59:06 30° S 06:01:56 10° ESE visible
20 Mar 0.5 05:01:26 16° SE 05:01:26 16° SE 05:02:16 10° ESE visible
20 Mar -0.4 06:33:38 12° WSW 06:35:46 20° SSW 06:38:13 10° SSE visible
21 Mar -0.6 05:36:39 24° S 05:36:39 24° S 05:38:46 10° SE visible
